Погода в Пишнуре

Россия / Кировская область     57°47′31″N   47°56′43″E
темп.,
°C
ветер,
м/с
пор.,
м/с
влажн.,
%
обл.,
%
осадки,
мм/ч
давл.,
гПа
погр.,
м
6 мая, чт
чт600:00+2з39905 0.0 1009349
03:000зюз27945 0.0 1011188
06:00+3з258617 0.0 1012260
09:00+8зюз246544 0.0 1013863
12:00+11юз356458 0.0 10131043
15:00+14ююз3760100 0.0 10121185
18:00+14ю3872100 0.0 1011421
21:00+11ююз4148096 0.1 1011444
7 мая, пт
пт700:00+11ююз51479100 0.0 1011621
03:00+10ю41381100 0.0 1011479
06:00+11ю41278100 0.0 1011573
09:00+15ююз61160100 0.0 10111176
12:00+15ююз51162100 0.3 10111648
15:00+15юз61263100 1.0 10111687
18:00+8зсз4790100 1.6 1013582
21:00+7юз25952 2.3 1016161
8 мая, сб
сб800:00+5юз26960 0.0 1017138
03:00+4юз22960 0.0 101825
06:00+7ю12865 0.0 1019133
09:00+12ююв346246 0.0 1019752
12:00+15юв46425 0.0 10171588
15:00+16юв5849100 0.0 10151893
18:00+15ююв4962100 0.0 10131019
21:00+12юв41379100 0.0 1012413
9 мая, вс
вс900:00+13ююв51473100 0.0 1010560
03:00+12ююв6157399 0.1 1010577
06:00+12ююв61570100 0.0 1009882
09:00+12ююв51479100 1.1 1010816
12:00+12ююз51191100 1.8 1012823
15:00+11зюз3784100 4.8 1015696
18:00+8з2795100 3.4 1017447
21:00+8зсз2692100 6.6 1019379
10 мая, пн
пн1000:00+7зсз2692100 0.1 1021228
03:00+5сз3893100 0.1 1024364
06:00+5ссз388797 0.0 1027547
09:00+9с46615 0.0 10281013
12:00+13ссз34445 0.0 10291565
15:00+14ссз34385 0.0 10291799
18:00+13с125370 0.0 102952
21:00+8ссз116433 0.0 103110